Wind_Speed
56 56 56 56 56 56 56 56 56 57 57 57 57 57 58 59 60 60 60 60 62 63 63 63 64 63 63 63 63 62 61 61 61 61 59 58 59 60 60 60 59 59 58 57 58 60 61 62 64 65 66 67 68 69 70 72 74 76 77 78 77 76 74 73 71 68 67 67 66 65 65 64 65 68 70 71 72 73 73 73 72 70 69 67 66
59 58 56 56 56 56 57 58 58 58 59 59 59 59 61 62 63 62 62 62 63 63 64 65 65 65 64 64 64 63 62 61 60 59 59 60 61 61 60 60 59 58 58 60 62 63 65 66 67 68 69 69 70 71 71 73 74 75 76 76 75 73 71 69 68 67 66 66 66 65 65 64 64 65 67 68 69 71 71 71 71 70 69 67 67
59 60 59 58 58 59 60 61 62 62 61 60 60 61 63 64 64 63 63 63 63 64 65 66 66 67 66 65 65 64 63 62 61 61 61 63 63 62 61 60 59 58 59 61 63 65 67 68 69 70 70 70 71 72 72 73 74 74 73 73 71 70 68 67 67 66 65 65 65 65 65 64 64 65 66 66 66 68 69 69 69 68 67 67 67
61 61 61 61 62 63 64 64 65 64 63 62 62 63 64 64 64 63 62 62 63 64 66 68 68 68 68 67 67 66 65 64 64 64 64 65 65 64 63 61 60 60 61 63 65 66 68 70 70 70 70 70 70 71 72 72 72 71 70 69 68 67 66 66 65 64 62 62 63 64 64 64 64 65 65 65 65 67 68 68 68 68 68 69 69
65 64 63 63 64 65 65 66 66 66 65 64 63 64 64 64 63 62 62 62 63 65 67 68 68 68 68 68 69 69 68 67 67 67 67 67 66 65 63 62 61 62 63 65 66 68 70 70 70 69 69 69 69 70 70 70 69 68 66 65 65 64 62 60 59 58 57 57 59 60 62 62 63 64 65 65 64 65 65 66 67 67 68 69 69
66 64 62 62 62 64 65 65 65 64 63 63 62 63 63 62 60 60 61 63 64 66 67 68 68 68 68 69 70 71 71 71 70 69 69 67 66 64 63 63 63 64 65 66 68 70 71 70 69 68 68 68 68 68 68 67 65 63 62 61 60 58 56 54 54 54 54 55 56 57 58 58 57 58 60 61 60 60 61 62 63 65 66 67 68
65 61 59 58 59 61 62 61 59 58 58 58 58 59 59 59 59 60 62 64 65 66 67 68 67 68 68 69 70 71 73 73 72 71 69 67 66 65 64 64 64 65 66 67 69 71 70 69 68 68 67 67 66 65 64 62 59 58 58 58 56 55 54 54 55 55 55 55 55 55 53 51 51 53 56 58 59 60 60 61 62 64 66 67 68
65 62 59 56 56 56 57 58 58 58 58 58 60 61 63 64 64 64 65 66 67 67 68 68 68 69 69 69 69 71 72 72 72 71 69 68 67 66 65 65 65 66 67 68 70 70 69 68 68 67 66 65 63 61 59 57 56 56 56 56 55 55 56 56 56 56 56 54 52 51 50 50 52 54 56 59 61 62 62 62 63 64 65 66 69
68 67 62 58 56 56 58 59 59 60 62 63 64 65 66 67 67 66 66 67 68 69 70 70 70 70 70 70 70 71 72 72 72 71 70 68 67 66 66 66 66 67 68 69 70 70 69 68 67 65 64 62 59 57 56 55 55 55 55 56 56 56 55 55 55 54 53 51 51 51 51 52 52 53 55 59 62 63 65 66 66 68 69 70 72
68 67 64 61 61 63 64 65 65 66 68 69 68 67 66 66 66 66 67 69 70 71 71 71 71 71 71 71 71 71 71 71 70 69 67 66 66 66 66 67 67 68 69 70 70 69 68 66 64 63 61 58 56 55 55 54 54 55 56 56 54 53 53 53 54 54 53 53 53 53 52 52 54 57 60 63 66 69 70 72 73 74 76 76 75
71 71 71 71 73 74 75 74 74 75 75 72 69 66 66 67 68 68 69 71 73 74 73 73 72 73 72 72 72 71 70 69 67 65 64 64 64 65 65 66 67 68 69 70 69 67 64 62 61 60 58 57 56 55 54 54 54 54 53 52 51 51 52 53 53 53 53 53 53 54 55 57 61 64 66 68 70 72 74 76 77 78 79 80 79
77 77 77 78 80 81 82 83 82 79 74 69 66 66 68 69 69 70 71 73 75 75 75 75 75 76 76 75 73 71 69 67 65 64 63 63 64 65 65 67 68 69 70 69 67 63 61 60 59 58 57 56 55 54 53 52 52 51 50 49 49 50 51 52 52 52 53 54 55 58 61 63 65 67 69 72 74 75 77 79 81 82 82 83 84
75 75 77 79 81 82 83 83 81 76 71 67 66 68 70 71 71 72 74 76 76 76 76 76 76 77 77 76 73 70 68 66 65 64 63 64 64 66 67 68 69 70 69 67 64 61 59 58 58 57 56 55 53 52 51 50 49 48 48 48 49 49 50 51 52 54 55 57 59 61 64 65 67 68 71 74 76 78 79 81 83 85 85 85 86
73 75 78 80 80 79 79 78 76 73 70 68 68 70 72 73 75 75 76 77 77 76 75 75 75 75 75 73 71 69 68 66 65 64 64 65 66 67 68 70 70 69 67 64 62 59 58 58 57 56 54 53 52 51 49 48 48 48 48 49 49 50 52 53 55 56 57 59 60 62 64 66 68 70 72 76 79 80 81 83 85 87 87 87 86
77 78 80 79 77 76 75 75 73 72 71 70 71 73 75 76 77 76 76 75 75 74 74 73 73 72 71 70 69 68 66 65 65 65 66 67 68 70 70 70 68 67 65 63 61 59 58 57 55 54 53 53 52 50 49 48 48 48 49 50 52 53 55 56 57 58 60 61 63 65 67 69 71 73 75 78 82 84 85 87 87 89 90 89 87
81 80 80 79 77 76 76 76 75 74 74 75 77 78 79 78 76 75 74 73 73 72 71 70 69 68 67 67 67 66 65 65 66 67 68 69 70 71 70 69 68 67 64 61 59 59 57 55 54 53 53 52 51 49 48 47 47 48 50 52 54 55 57 58 59 61 63 65 67 69 71 72 75 77 78 81 84 87 89 89 89 90 92 91 89
78 76 77 79 79 78 78 79 79 78 78 80 82 83 81 79 76 75 74 74 73 72 70 68 66 65 65 65 66 66 66 66 67 69 69 70 71 71 70 70 68 65 61 59 58 58 56 54 53 52 52 50 48 47 47 47 48 50 52 55 57 59 61 62 63 65 67 69 71 72 73 75 76 78 80 82 85 88 91 91 90 90 91 91 90
73 74 75 77 78 80 80 80 81 81 81 83 84 83 79 76 74 73 74 74 74 72 70 69 67 65 64 64 65 66 66 68 70 70 70 71 70 71 71 69 65 61 58 57 57 55 54 53 52 51 50 49 49 49 50 51 53 55 58 60 61 63 65 66 67 69 71 73 74 75 75 76 77 79 81 83 85 88 90 91 90 90 90 90 89
72 73 74 74 75 77 79 80 79 80 80 81 80 77 74 71 70 69 70 71 73 73 72 71 69 66 64 63 64 65 67 69 71 70 70 71 70 70 68 65 62 59 57 56 55 53 53 53 52 51 50 52 53 55 58 60 62 64 65 65 66 67 68 70 71 72 74 76 77 77 77 78 79 80 82 84 86 88 89 89 90 90 90 89 88
72 73 73 73 71 71 73 75 74 73 73 74 74 74 73 72 70 69 70 72 74 75 76 75 72 68 65 64 64 65 67 70 72 70 70 70 70 68 66 64 62 59 57 56 54 54 55 54 54 54 55 57 60 62 64 66 67 67 68 68 69 69 71 72 73 75 77 78 79 79 79 79 80 82 84 85 87 88 88 88 88 89 89 88 86
74 74 75 75 72 70 70 71 70 71 72 74 76 78 79 78 76 75 75 76 78 79 80 77 72 68 66 65 65 66 68 70 71 71 71 71 69 67 65 64 62 59 58 57 57 57 58 58 58 59 60 62 63 64 66 67 67 68 69 69 69 70 72 73 75 77 78 80 81 81 81 81 82 84 86 87 88 87 87 87 87 87 87 86 85
78 77 78 78 76 74 72 71 72 74 76 78 81 82 82 80 78 78 79 80 80 78 75 72 68 65 64 63 64 65 67 69 71 72 73 73 70 66 65 64 63 61 61 60 60 61 62 62 64 64 65 65 64 65 66 66 67 69 69 70 70 72 73 74 76 78 79 80 81 82 82 83 84 86 87 88 87 86 85 85 85 85 85 84 83
79 78 77 76 75 74 73 74 76 77 79 81 81 80 79 78 77 77 78 78 76 73 70 68 67 65 64 63 63 64 67 70 72 73 73 73 70 67 66 65 64 64 64 64 63 64 66 67 67 66 65 64 64 63 64 65 68 69 70 70 72 73 74 76 78 79 80 81 82 82 83 85 86 87 88 88 86 83 82 83 83 83 83 82 81
78 78 76 75 76 77 78 78 79 80 82 83 80 77 75 75 75 74 74 73 73 72 71 70 68 67 66 65 64 64 67 70 73 74 73 71 70 68 67 67 67 67 67 67 67 68 70 70 69 67 65 63 62 62 64 66 68 70 71 72 73 74 76 77 78 78 79 81 83 83 84 85 86 87 88 86 83 80 80 81 82 82 82 80 79
79 80 81 81 81 81 81 80 80 81 83 83 81 79 78 78 77 74 73 72 71 72 74 74 73 71 70 69 67 66 67 70 75 76 74 71 71 69 67 67 69 71 72 72 73 74 74 73 72 70 67 64 63 64 66 68 69 70 72 73 74 75 76 76 76 76 78 81 82 82 83 85 86 88 88 84 80 78 79 80 80 80 81 80 79
84 82 83 84 84 82 81 81 81 82 82 82 81 81 82 81 79 76 74 73 71 72 75 76 76 74 74 75 74 72 72 75 78 78 74 71 69 67 65 68 73 75 76 75 76 76 75 74 72 71 68 66 66 68 69 70 71 71 71 73 75 76 76 74 74 75 78 80 81 82 84 85 86 87 85 81 78 78 78 78 77 78 80 81 80
90 85 82 81 82 82 81 82 82 82 81 80 79 79 78 77 76 75 73 72 73 74 76 77 77 77 78 78 78 78 78 79 78 75 70 67 66 65 67 72 75 77 76 76 76 75 74 73 73 72 71 70 70 70 71 71 71 70 71 73 74 75 74 73 73 75 78 79 80 82 84 85 85 84 82 79 77 77 77 77 77 77 80 82 83
95 91 86 82 81 81 81 82 83 83 80 78 76 75 74 74 73 72 71 73 76 78 78 78 78 78 77 77 76 76 75 75 73 70 68 67 68 70 73 75 77 76 75 72 69 67 67 68 69 70 71 71 71 71 72 72 71 71 72 72 73 74 74 73 73 76 77 78 79 81 83 83 82 81 79 77 76 76 77 77 78 79 81 83 84
98 95 91 87 84 81 81 82 83 83 80 77 75 74 73 72 71 71 72 75 79 80 80 79 78 76 74 75 75 74 74 73 73 73 72 73 74 75 76 76 75 72 69 65 62 61 62 64 67 70 71 72 72 73 73 73 73 73 73 72 73 75 74 73 73 75 76 77 79 81 81 80 79 78 77 76 75 75 77 78 80 81 83 85 86
101 99 95 92 88 84 81 81 82 82 80 77 75 74 73 72 72 74 77 79 80 80 79 78 77 74 71 70 71 73 74 75 75 77 78 78 78 78 76 73 68 64 63 63 65 66 67 70 72 74 74 74 74 74 74 74 74 74 73 73 75 75 73 71 72 73 74 76 78 79 78 77 77 76 76 75 74 74 77 79 81 83 85 86 87
103 101 98 95 92 88 85 84 84 84 82 80 79 78 77 76 75 77 79 81 81 80 78 77 76 74 71 69 69 69 70 71 72 75 77 79 77 75 72 68 64 62 64 66 70 73 75 78 79 78 77 76 75 75 74 74 74 73 73 75 75 73 70 70 71 71 73 75 76 76 75 75 74 75 75 75 74 74 76 79 81 84 86 87 88
104 102 100 99 96 94 91 90 90 90 89 86 84 82 81 80 79 78 79 80 81 81 80 79 78 76 73 70 69 68 68 68 69 70 73 74 72 69 67 65 65 67 69 71 75 79 82 84 83 81 79 78 77 77 76 75 73 73 75 76 75 71 69 69 70 70 72 73 73 73 72 72 73 74 74 74 74 75 77 79 82 85 86 87 87
105 104 102 100 97 95 94 95 96 96 96 95 91 87 84 82 82 82 83 83 82 82 81 81 80 78 75 71 69 68 67 68 68 69 70 71 70 69 69 71 73 75 77 79 82 85 86 86 85 83 81 79 78 77 75 74 73 74 76 76 73 69 68 68 68 69 70 70 69 69 70 71 73 73 73 74 75 76 78 80 83 85 87 87 86
106 106 104 102 101 100 100 101 101 102 102 101 99 94 89 85 84 85 86 87 87 86 85 85 84 83 81 78 74 70 68 69 70 71 71 71 72 73 76 78 80 80 80 82 84 86 86 85 84 81 79 77 76 74 73 73 74 76 76 73 69 66 65 66 66 66 66 66 66 68 70 71 72 72 72 73 75 77 79 81 84 85 86 86 86
108 108 107 106 105 105 105 106 107 106 105 104 102 99 94 90 88 87 87 88 89 90 91 90 90 89 88 87 83 79 76 76 76 77 77 77 78 79 80 80 80 80 81 83 84 84 83 81 79 77 75 74 74 73 73 74 74 74 73 69 65 63 63 63 63 63 63 64 66 68 69 69 70 71 71 73 76 78 80 82 83 85 86 86 85
102 107 110 111 111 111 110 110 110 108 106 105 104 102 99 95 93 93 93 92 92 93 94 95 95 93 92 92 92 90 88 87 87 86 85 85 85 85 83 81 80 80 81 81 81 79 77 76 74 73 73 73 73 73 73 73 73 72 69 65 62 61 61 61 60 60 61 64 66 67 67 67 68 70 72 74 76 78 80 82 83 84 85 85 84
88 93 99 104 109 111 113 114 114 112 110 107 105 103 102 100 99 100 101 101 101 101 101 100 99 97 94 94 95 96 96 97 96 95 93 91 90 88 84 80 78 77 77 76 75 73 73 72 72 72 72 72 73 73 72 71 70 68 65 61 59 59 58 58 58 59 61 63 64 64 64 65 67 69 72 74 76 78 80 82 83 84 83 83 82
78 80 82 85 90 96 101 106 110 111 112 111 109 108 107 107 107 108 109 110 110 111 109 106 103 100 97 96 97 99 100 100 99 98 96 94 90 86 80 76 74 73 72 71 70 70 70 71 71 71 71 71 70 70 69 67 66 63 60 57 57 57 56 56 57 59 61 62 62 62 63 64 67 69 72 74 76 78 80 81 82 83 81 79 78
71 72 72 73 74 77 81 87 93 98 103 105 107 107 109 110 111 111 109 107 107 107 107 106 105 102 100 98 98 99 99 99 97 95 93 90 85 79 76 74 73 73 71 70 70 70 70 70 70 69 69 68 68 66 64 63 60 58 56 55 55 55 54 55 57 59 59 60 60 61 62 64 67 69 72 74 76 78 79 80 81 81 79 77 74
65 66 65 65 65 65 67 70 75 80 85 89 93 96 99 101 102 101 99 98 98 97 98 99 100 100 99 97 96 94 92 91 90 89 87 84 80 77 76 76 74 73 72 70 69 69 68 67 67 67 66 65 63 61 59 57 55 54 53 53 53 53 54 55 56 57 57 58 59 60 62 64 66 69 71 74 76 78 79 79 78 77 76 73 71
58 58 58 57 57 57 58 59 61 63 66 70 73 77 80 81 83 84 84 86 87 88 89 90 92 93 92 91 87 84 82 82 82 82 81 79 77 75 74 72 70 68 67 66 65 64 64 64 63 62 61 59 58 56 55 53 51 51 51 51 51 52 53 54 55 55 56 57 59 60 62 64 66 69 71 74 76 77 78 77 76 74 72 69 67
49 49 49 49 49 50 50 50 50 51 52 54 55 58 59 61 62 63 64 66 69 72 75 77 78 79 78 77 76 76 75 74 73 72 70 69 68 66 64 62 60 59 58 57 57 57 58 59 59 58 57 56 54 52 51 50 49 49 49 49 49 51 52 53 54 55 56 57 59 60 62 64 66 69 72 74 76 77 76 74 72 70 68 66 64
39 40 40 40 39 39 39 39 39 39 40 41 41 43 44 45 45 45 46 47 49 51 54 56 57 59 61 64 65 65 64 62 60 57 55 54 53 53 51 50 49 48 47 47 49 51 53 54 55 55 54 52 50 49 48 47 47 47 46 47 49 50 51 52 53 54 56 58 59 61 63 65 67 69 72 74 76 76 74 72 69 66 66 64 60
30 29 29 29 29 28 28 29 29 29 30 31 31 32 32 32 32 32 32 33 35 36 38 40 43 46 49 51 50 48 47 45 43 40 39 39 41 43 44 44 44 45 45 46 47 49 51 52 52 51 50 48 46 46 46 45 45 45 45 47 49 50 51 52 54 55 57 58 60 62 63 65 67 69 71 74 76 75 72 69 66 64 64 62 57
26 25 25 25 24 24 24 24 24 25 26 26 26 26 26 26 26 26 27 27 28 28 30 32 34 35 34 34 33 33 32 32 32 32 32 32 35 40 43 43 42 44 46 48 48 48 48 48 46 45 44 44 43 44 43 43 43 44 46 47 49 50 51 53 54 56 58 59 61 63 64 65 68 70 72 74 75 74 71 68 65 63 63 61 55
27 26 26 25 24 23 22 22 22 23 24 25 25 26 26 26 26 26 26 25 25 25 27 27 26 23 23 24 25 26 27 30 32 33 34 33 33 35 39 41 41 41 42 44 45 45 43 42 40 40 40 41 42 42 42 42 43 45 46 47 49 50 52 54 55 57 59 61 62 64 65 66 68 71 72 74 74 72 70 67 63 61 61 58 52
30 28 27 26 24 23 22 22 21 21 23 24 26 27 27 27 27 26 25 25 25 25 25 24 23 22 24 26 27 28 30 32 34 34 34 34 34 34 36 38 39 39 38 38 38 38 38 37 37 38 39 39 40 40 41 42 44 45 47 48 50 51 53 55 57 59 61 62 64 65 66 68 70 72 73 74 73 71 69 66 62 60 59 56 51
31 30 28 27 25 23 23 22 23 23 24 25 26 27 27 26 25 24 24 25 25 25 24 25 25 27 28 29 30 30 31 32 32 31 32 33 34 36 36 36 36 36 35 34 34 34 35 35 36 37 37 38 39 40 42 43 45 46 47 49 51 53 54 56 58 60 62 64 65 67 68 70 72 73 74 74 73 70 68 65 61 58 57 53 49
25 28 28 27 26 25 25 25 25 26 26 26 26 25 25 25 24 24 24 26 27 28 28 29 31 31 32 32 32 32 31 30 31 33 34 35 37 38 38 36 34 32 31 31 32 32 33 34 34 35 36 38 40 41 43 44 45 46 48 50 52 54 56 58 59 61 63 65 67 68 70 71 73 74 75 74 72 68 66 64 60 58 55 51 48
19 22 24 25 25 26 26 26 26 26 26 26 25 24 24 24 24 25 25 27 29 30 32 33 35 36 36 36 35 34 33 33 34 36 38 38 38 36 34 32 30 28 28 29 29 30 31 33 34 36 38 39 40 42 43 44 46 48 50 52 53 55 57 59 60 62 64 66 68 70 71 73 74 75 75 73 70 67 64 62 59 57 54 50 46
17 20 22 24 25 27 27 27 26 25 24 23 22 22 23 24 26 27 28 30 32 34 35 36 36 37 37 36 36 36 37 37 37 37 36 35 33 31 29 27 25 25 26 27 29 30 32 34 35 37 38 39 40 42 43 45 47 49 50 52 54 55 57 59 61 63 66 68 69 71 72 74 75 75 73 71 68 65 63 61 58 56 53 49 45
Wind_Direction
260 259 260 262 264 265 266 266 266 266 266 267 269 270 271 272 273 273 275 277 279 280 282 282 282 282 282 281 280 279 277 276 273 271 269 267 267 267 269 271 273 274 274 274 277 279 281 284 286 288 289 289 289 289 288 288 287 286 285 285 286 287 288 289 290 289 287 284 282 280 279 278 276 275 274 274 274 273 272 272 271 271 271 270 271
260 260 259 260 262 264 265 266 267 267 268 270 271 271 271 271 272 273 275 276 278 279 281 281 281 281 280 279 278 277 275 273 270 267 267 267 267 268 270 272 273 274 274 274 275 277 279 281 284 286 287 287 288 288 288 287 287 286 285 285 286 288 290 291 291 289 285 283 281 280 279 279 277 275 274 273 273 272 271 271 270 270 270 271 271
259 261 262 262 262 263 264 265 266 267 268 269 270 270 270 270 270 272 273 275 277 280 281 282 282 281 280 279 277 275 273 271 268 265 265 267 268 269 271 272 273 274 275 275 275 276 277 279 281 283 284 285 286 287 287 287 286 285 285 286 288 290 291 291 289 287 285 282 280 279 278 278 277 275 273 272 271 270 269 269 270 270 271 272 273
258 260 261 263 264 264 264 264 265 265 266 268 269 269 268 268 270 271 273 275 278 281 282 283 283 282 281 279 277 274 272 270 267 265 265 267 268 270 271 272 274 275 276 277 277 277 278 279 280 282 283 284 285 286 286 286 286 286 286 287 288 289 289 288 287 286 286 284 282 280 279 279 278 277 275 274 273 272 271 270 271 272 274 276 277
260 260 261 263 264 265 265 265 265 265 266 267 268 268 268 269 270 272 274 276 278 280 282 283 283 281 280 278 276 274 272 270 268 267 266 267 269 270 272 273 274 276 277 278 279 279 279 280 281 282 283 284 285 286 286 286 286 286 286 287 287 287 287 287 288 288 288 287 285 283 282 281 280 279 278 277 276 276 276 275 275 276 277 279 279
260 260 260 262 264 266 266 267 268 268 268 269 269 268 268 269 270 273 274 275 276 277 279 279 279 278 277 276 275 273 272 271 269 268 268 268 270 272 273 274 276 277 279 280 280 280 280 281 282 283 284 285 286 286 285 285 285 285 285 285 285 285 286 287 289 290 290 289 288 285 283 282 281 280 280 280 279 279 279 279 279 280 281 281 281
261 259 259 260 262 263 264 265 268 269 270 271 271 271 271 272 273 274 273 273 274 275 275 275 274 272 272 272 271 271 270 270 269 269 268 269 270 272 274 276 277 278 279 280 280 280 280 281 282 283 284 285 285 285 284 283 283 283 282 283 283 285 286 288 289 290 289 289 288 285 283 282 281 281 281 282 282 282 281 281 281 282 283 284 285
262 261 260 260 260 261 262 263 265 267 269 271 273 276 277 277 276 275 274 274 274 274 274 273 271 269 269 269 269 268 268 269 268 268 268 269 271 272 274 276 277 279 279 279 279 278 279 280 281 282 283 283 283 282 281 281 281 281 281 282 284 286 288 289 289 288 287 286 285 283 283 283 283 283 284 284 285 285 285 285 285 285 286 288 289
261 262 262 261 261 263 264 265 265 267 270 272 275 278 278 277 276 275 274 274 273 273 273 272 271 269 268 267 267 267 267 267 266 266 267 269 270 272 274 276 277 278 278 277 277 277 278 278 279 280 281 281 280 280 280 279 279 280 281 283 286 287 288 289 288 287 286 285 284 284 284 285 286 287 288 289 289 290 291 291 291 291 291 292 293
260 262 263 265 267 268 268 268 269 271 273 276 277 277 276 274 273 273 272 272 272 271 270 270 269 268 267 267 266 266 266 266 266 266 267 269 270 272 274 275 276 276 276 275 275 275 275 276 277 278 278 278 277 278 278 278 278 280 282 284 286 287 287 287 286 285 285 284 285 285 286 287 289 291 293 294 294 295 296 296 296 296 295 295 296
265 265 266 269 272 273 273 273 273 275 276 277 275 273 271 270 270 270 271 271 270 270 269 269 268 268 267 267 266 266 266 266 267 268 269 270 271 272 273 273 274 274 274 274 273 272 273 274 276 276 276 276 276 277 277 278 279 281 282 284 285 285 285 285 285 285 285 286 286 287 288 290 293 295 296 297 297 298 299 299 299 298 298 298 298
269 269 269 271 272 274 275 276 276 277 276 274 270 267 266 266 267 267 268 268 268 268 268 268 268 267 267 267 267 267 267 267 268 270 271 272 272 272 272 273 273 272 272 271 270 270 272 273 274 274 274 274 275 276 277 278 279 281 282 283 283 284 284 284 284 285 286 287 288 290 292 293 296 297 298 298 298 298 299 299 300 300 301 301 301
270 271 273 275 275 275 275 275 275 274 272 269 265 264 264 265 265 265 264 264 264 265 266 267 267 267 266 266 266 266 267 268 270 271 271 271 271 272 273 272 271 269 269 268 269 270 271 271 271 272 273 274 275 276 277 277 279 280 280 281 281 281 282 283 284 285 287 289 291 293 295 297 298 299 299 299 299 299 299 300 301 302 302 303 303
273 274 276 277 276 274 273 273 271 269 267 264 262 262 264 265 264 263 262 262 263 263 264 264 264 265 265 266 266 267 268 269 270 270 270 270 271 271 271 269 267 266 267 268 269 269 268 268 269 271 272 273 274 275 275 276 277 278 279 280 281 282 284 286 288 290 292 294 295 297 299 300 301 302 303 303 303 303 303 303 304 304 304 304 304
275 275 275 274 272 270 268 268 266 265 264 263 262 262 263 263 263 261 260 260 260 261 261 262 263 265 266 267 268 269 269 270 271 271 271 271 271 269 268 266 265 266 268 268 268 267 266 267 269 270 272 273 273 273 275 276 278 280 282 284 285 287 289 291 292 294 295 297 298 300 301 303 304 306 307 308 307 307 307 307 307 305 305 305 305
273 272 271 270 268 265 264 263 263 262 263 263 263 262 262 261 261 260 259 259 260 261 263 265 266 267 268 269 269 269 269 270 270 271 271 270 269 268 267 266 267 267 267 266 266 266 266 267 269 270 271 272 273 274 276 278 280 282 285 287 289 291 293 294 295 296 298 299 300 302 303 304 306 307 308 309 309 309 310 309 307 306 306 306 305
269 268 267 267 265 263 261 261 259 259 259 260 259 259 260 260 260 260 261 261 263 265 267 268 269 269 270 270 269 269 269 269 270 270 270 269 269 268 268 267 266 265 264 264 265 265 266 267 269 270 270 271 273 274 276 278 280 284 287 290 292 294 295 297 298 299 300 301 303 304 304 305 306 307 308 309 309 309 311 310 307 305 305 305 304
265 264 264 264 263 262 261 260 259 258 257 257 256 257 257 258 259 261 262 264 267 269 271 272 272 272 272 271 270 270 269 268 268 269 269 269 269 269 267 265 263 262 262 263 263 264 265 266 267 268 269 271 272 274 276 279 282 286 290 293 295 296 297 299 301 302 302 304 305 306 305 305 305 307 308 309 309 309 309 309 306 304 304 303 303
262 262 263 264 264 262 261 259 258 256 255 254 255 256 257 259 262 264 266 268 271 273 276 276 276 275 273 272 270 269 267 267 267 268 269 269 268 266 263 261 260 260 261 262 262 262 262 263 264 266 269 271 273 275 278 281 284 288 292 295 297 298 300 301 303 304 304 306 306 307 306 305 305 307 308 309 308 307 307 306 304 303 302 302 301
260 260 262 263 262 261 258 257 256 256 256 258 259 261 263 266 268 270 271 271 273 275 278 278 278 275 273 271 270 269 268 267 267 267 267 266 263 260 258 258 259 260 260 259 259 259 260 262 263 265 269 272 274 277 280 282 286 290 293 295 297 299 300 302 304 305 305 306 306 306 305 304 304 306 308 308 308 306 305 304 302 301 300 300 300
259 258 259 259 260 260 260 260 261 263 266 268 268 269 269 270 271 271 272 272 274 276 277 277 276 274 272 271 270 269 269 268 268 267 264 261 258 257 257 258 258 258 257 257 257 258 260 263 265 267 270 272 275 278 280 283 287 290 292 294 295 297 300 302 304 305 305 305 305 305 304 303 303 305 307 308 307 305 303 302 300 299 299 299 299
259 257 257 257 259 261 262 263 265 267 269 270 270 268 268 268 269 271 272 273 273 273 273 272 271 270 270 270 270 269 269 267 267 267 263 259 258 258 257 257 257 257 256 256 256 258 262 265 267 268 270 272 274 277 279 283 287 289 291 293 295 297 300 302 304 304 304 303 303 303 302 301 302 305 307 307 306 304 302 301 300 299 299 299 299
258 256 256 257 258 261 263 264 266 267 269 269 268 267 267 269 270 272 273 272 272 270 269 268 268 268 269 269 269 269 268 267 267 266 263 260 258 258 257 257 258 257 256 256 257 260 264 266 267 268 270 272 273 275 279 283 286 289 291 293 295 298 300 302 303 303 301 301 301 301 299 299 301 304 307 307 305 303 301 301 300 299 299 299 299
258 256 257 259 262 264 265 266 267 268 268 268 266 265 266 267 269 270 270 270 270 270 270 269 269 269 270 270 270 270 269 268 268 265 261 258 258 258 258 258 258 256 255 256 259 262 264 265 265 267 269 270 271 275 279 283 287 289 291 293 296 299 301 302 302 300 299 298 299 298 297 298 301 304 306 306 304 302 301 301 300 299 299 299 300
262 260 260 262 264 265 265 266 268 267 265 264 263 263 263 264 265 266 267 267 267 268 269 269 270 271 273 274 273 272 271 269 267 264 260 257 257 258 259 259 258 257 258 259 262 264 265 266 267 268 269 270 272 276 281 286 289 290 292 294 297 300 301 302 300 297 295 295 295 294 295 298 302 305 306 305 303 302 301 300 299 299 299 299 301
264 263 262 262 262 262 263 264 265 264 263 261 261 262 262 263 263 263 265 265 265 265 266 266 265 267 269 270 270 270 269 267 264 261 258 257 258 259 258 256 257 259 261 264 265 266 266 267 268 269 270 272 276 281 285 288 290 292 294 296 298 300 300 299 295 293 292 292 292 292 294 298 303 305 306 304 303 302 301 299 299 299 299 300 301
266 264 262 260 259 259 261 262 262 261 260 259 259 260 260 261 261 262 263 265 265 264 263 261 260 260 260 259 259 259 259 259 259 259 258 258 258 255 252 251 256 261 264 265 265 265 266 268 269 270 273 277 281 285 288 290 292 294 295 295 296 297 296 293 290 289 289 289 290 292 295 300 303 305 304 303 302 301 301 300 300 300 300 301 302
266 265 262 261 259 258 259 259 258 258 257 257 257 257 257 258 259 260 262 264 264 261 258 256 255 255 253 252 251 252 252 253 254 256 255 253 251 248 247 251 256 260 262 262 264 266 268 270 272 276 279 283 286 289 291 293 294 295 295 295 295 294 290 287 285 285 286 287 289 293 297 301 303 303 303 302 302 301 301 301 301 301 301 302 302
266 265 263 261 260 259 258 257 256 255 255 256 256 256 256 258 259 261 262 262 259 255 253 251 251 250 250 249 249 250 251 251 250 250 248 247 246 246 248 252 256 258 258 260 264 267 270 274 278 282 286 288 290 292 293 294 294 295 295 294 293 289 286 283 283 283 285 288 291 295 299 301 302 302 302 302 302 302 301 301 301 301 302 302 303
264 264 263 260 258 257 257 256 255 254 254 255 255 256 256 257 259 260 259 256 253 250 249 248 247 247 247 248 249 250 250 250 250 249 248 247 246 246 247 250 254 257 260 264 269 274 278 282 285 287 289 291 292 292 292 293 293 293 293 291 288 285 282 281 281 284 287 291 294 298 300 301 302 301 301 301 301 301 301 301 301 302 302 303 304
260 260 260 258 255 253 253 253 254 253 253 253 253 254 255 256 257 257 256 253 251 250 249 247 246 245 246 247 249 250 252 252 252 252 250 247 245 246 248 251 255 259 263 269 274 279 282 285 288 289 291 292 292 292 292 292 292 291 289 287 284 282 280 280 282 286 290 294 297 299 301 301 301 301 301 300 300 300 300 300 301 302 303 304 305
255 255 255 254 251 250 250 252 253 254 254 253 252 251 252 253 254 255 255 254 252 252 251 249 247 245 245 246 247 248 251 253 253 251 249 247 248 251 254 258 261 263 266 271 275 278 282 286 289 290 290 291 291 292 291 291 290 288 285 283 281 280 278 280 285 289 292 296 298 300 300 300 300 300 300 300 299 300 300 301 302 302 303 304 305
254 252 251 249 247 247 249 252 255 255 255 254 253 252 251 251 252 253 254 255 255 255 255 253 250 247 246 247 248 248 249 250 250 250 250 251 253 257 261 265 268 270 273 275 278 280 283 285 287 287 288 288 289 289 289 287 285 283 282 281 280 278 278 282 287 292 295 297 298 299 299 299 299 299 299 299 299 300 301 302 302 303 304 305 306
254 253 251 249 247 248 250 254 256 256 255 253 252 251 251 252 253 254 255 257 259 259 259 258 256 255 253 252 252 252 252 251 251 253 255 256 259 264 268 272 274 276 278 278 279 280 281 282 283 284 284 285 285 284 283 281 280 279 279 279 278 277 280 286 290 294 296 297 297 298 298 298 298 298 298 298 299 301 302 303 303 304 305 306 307
254 253 252 251 250 250 252 253 254 254 253 252 251 250 249 250 252 254 256 258 260 261 262 261 261 261 261 259 258 257 258 258 258 259 260 263 267 271 274 276 278 278 278 276 276 277 277 278 279 280 279 279 279 278 277 276 276 276 277 277 275 278 283 289 292 294 295 296 296 296 296 296 297 297 298 299 300 301 303 304 305 306 307 308 309
255 254 253 252 252 252 252 252 252 252 251 251 250 249 249 251 253 256 258 260 261 262 263 262 262 262 263 263 262 261 262 264 266 267 268 270 272 275 277 279 279 278 275 274 274 275 275 275 275 275 274 274 273 273 273 273 274 275 276 275 275 280 286 290 292 293 294 295 295 295 295 295 296 297 298 300 302 304 305 306 307 308 309 309 310
259 257 255 253 253 253 253 254 253 253 253 252 251 250 250 252 255 259 262 263 263 263 263 262 261 261 261 262 263 264 265 267 269 271 273 274 276 277 278 279 278 275 273 273 273 273 272 272 271 270 269 269 269 270 271 272 273 274 274 274 277 284 288 290 291 292 293 294 294 294 294 294 296 297 300 302 304 305 307 308 308 309 310 311 311
261 260 258 257 255 254 254 254 254 254 255 254 254 253 253 255 258 262 264 265 264 264 262 261 260 261 262 263 265 267 268 269 271 272 274 276 277 278 277 275 273 271 271 270 269 268 267 266 266 266 266 267 268 269 270 271 273 273 273 275 281 286 288 288 290 291 292 292 292 292 293 295 297 299 302 304 305 307 308 309 310 310 311 311 311
261 261 260 259 258 256 255 254 254 255 255 256 256 256 257 258 261 263 264 263 263 262 261 259 259 262 265 267 268 269 270 271 272 273 274 275 276 275 273 271 270 269 268 266 264 263 262 262 263 264 265 266 267 268 269 271 272 272 273 278 283 285 286 287 289 290 290 291 291 292 294 296 298 301 304 306 307 309 310 311 311 311 312 312 312
261 260 260 260 259 258 256 255 254 254 255 255 256 257 258 259 260 260 259 259 260 261 260 259 260 263 266 268 269 269 269 270 271 271 272 273 272 271 270 270 269 267 266 263 262 261 261 261 263 264 264 266 267 268 270 271 271 272 275 280 282 283 284 286 288 288 289 289 291 292 295 298 300 303 306 308 309 311 312 312 312 312 312 312 311
261 260 260 259 259 258 257 256 255 255 255 254 254 254 255 255 256 256 256 256 258 259 260 261 262 263 265 266 266 267 267 268 268 269 269 270 269 269 268 268 266 264 263 262 261 261 261 262 263 264 265 266 268 269 270 270 270 273 277 279 280 282 284 285 286 287 287 289 291 294 296 299 302 305 307 309 311 312 313 313 313 312 312 312 310
261 260 259 259 259 258 258 257 257 256 255 255 254 254 253 253 253 254 254 255 255 257 258 259 260 261 262 262 263 265 266 266 266 266 265 265 265 265 264 263 262 261 261 260 261 261 261 262 263 264 265 267 268 268 268 269 271 274 276 277 279 281 283 283 284 285 287 289 292 295 298 300 303 306 308 310 312 313 314 313 312 312 312 311 309
260 258 258 258 259 259 259 257 256 255 254 253 253 252 251 252 252 251 251 251 252 253 254 256 256 257 258 260 262 264 264 263 263 262 261 261 261 261 260 260 259 259 260 260 259 259 260 261 262 263 265 266 266 266 266 268 271 273 274 276 278 280 281 282 283 285 288 291 293 296 299 301 304 307 309 312 313 314 314 313 312 311 312 311 309
254 253 253 253 252 252 252 252 251 250 250 249 248 247 247 248 249 248 249 251 252 253 254 254 255 256 259 261 261 260 258 257 258 259 259 257 254 252 253 255 256 256 256 257 258 258 258 259 260 262 263 263 263 264 266 268 270 272 273 275 277 278 279 282 284 286 289 292 294 296 299 302 304 307 310 312 314 314 313 312 311 311 312 311 308
241 241 241 241 241 243 245 246 247 246 245 244 244 244 245 247 250 253 256 257 256 255 255 255 255 257 257 255 252 249 249 251 254 255 256 254 250 247 248 251 255 255 254 254 255 256 257 258 259 259 259 260 261 263 265 267 269 271 273 274 276 278 280 283 285 288 290 292 294 296 299 302 305 307 310 312 314 314 313 312 312 311 312 311 307
232 233 234 234 236 239 242 244 245 246 246 246 245 246 247 250 253 258 260 258 253 251 251 251 250 248 245 244 245 248 251 253 254 256 257 255 253 251 251 253 256 257 256 254 253 254 256 256 256 256 257 258 260 262 265 267 269 271 272 274 277 280 283 285 287 289 290 292 294 297 299 302 305 307 310 312 314 313 312 312 311 311 311 310 306
230 230 231 231 232 236 240 243 245 247 247 248 248 249 250 252 254 256 256 253 250 250 250 247 243 241 242 245 248 250 253 254 255 255 254 251 250 254 256 254 254 255 256 254 253 253 253 253 253 254 256 258 260 263 266 268 270 271 273 276 279 282 284 286 287 289 291 293 295 297 300 303 305 307 309 312 313 313 312 311 310 310 311 309 305
234 231 231 231 232 235 238 241 244 247 249 251 251 250 250 252 253 254 252 250 250 249 246 243 243 245 246 245 245 247 251 253 254 251 248 246 249 253 255 252 251 251 251 250 249 248 249 250 252 254 256 259 261 264 266 268 270 273 276 279 281 283 285 287 288 290 292 294 296 298 301 303 306 308 310 312 313 312 311 310 309 309 310 308 304
238 233 232 233 236 238 239 241 244 248 251 252 251 250 251 252 252 250 249 250 250 248 245 243 243 244 243 243 243 246 250 253 252 249 246 248 252 255 252 248 245 244 243 243 244 246 248 251 254 256 258 261 263 265 268 270 273 276 279 281 283 284 286 288 290 291 293 295 297 299 301 304 306 308 310 312 312 311 310 309 308 308 309 308 304
242 236 235 237 240 241 242 244 247 250 251 250 249 248 249 250 248 245 244 245 247 248 247 245 244 244 244 245 246 247 247 249 249 248 247 248 250 249 245 240 238 238 239 242 245 248 250 253 255 257 260 262 265 268 271 274 277 279 281 283 285 286 288 290 291 293 294 296 298 300 302 304 307 309 310 311 311 310 308 307 306 306 308 307 303
248 243 241 241 243 245 247 250 252 252 250 247 247 248 249 250 249 247 245 244 244 245 246 246 245 245 247 248 247 245 244 244 246 246 245 244 242 239 235 234 236 238 242 245 247 249 251 254 256 259 263 266 269 272 275 277 280 281 283 285 287 289 290 291 292 294 295 297 299 301 303 305 307 309 309 310 310 309 307 306 305 304 306 306 303
Height
5656 5656 5656 5656 5657 5657 5656 5656 5656 5656 5656 5655 5656 5656 5655 5654 5653 5653 5652 5652 5651 5650 5650 5649 5648 5648 5648 5647 5647 5647 5646 5646 5645 5645 5644 5644 5643 5642 5642 5641 5641 5640 5639 5639 5638 5636 5635 5635 5633 5632 5631 5630 5629 5628 5627 5625 5624 5623 5622 5622 5620 5619 5619 5619 5620 5622 5618 5612 5611 5610 5608 5609 5607 5601 5597 5597 5595 5593 5591 5588 5586 5586 5588 5588 5589
5646 5647 5648 5649 5650 5650 5648 5648 5648 5648 5647 5647 5648 5648 5646 5646 5645 5644 5645 5644 5643 5642 5641 5640 5639 5639 5639 5639 5638 5638 5638 5638 5638 5637 5636 5635 5635 5634 5634 5634 5633 5633 5632 5631 5630 5629 5628 5627 5626 5625 5623 5622 5620 5618 5617 5616 5615 5614 5613 5612 5611 5609 5609 5610 5609 5611 5610 5605 5601 5599 5598 5598 5597 5593 5590 5589 5587 5584 5581 5578 5576 5578 5579 5579 5580
5638 5638 5639 5641 5642 5642 5641 5641 5640 5640 5640 5640 5640 5639 5638 5637 5636 5636 5636 5635 5634 5633 5632 5631 5631 5630 5630 5630 5630 5629 5629 5629 5629 5629 5627 5626 5626 5626 5626 5625 5625 5625 5624 5623 5622 5621 5620 5618 5617 5616 5614 5613 5611 5609 5608 5607 5606 5605 5603 5603 5602 5600 5599 5599 5598 5598 5599 5597 5593 5589 5588 5588 5587 5584 5581 5580 5579 5576 5573 5570 5569 5569 5569 5569 5570
5629 5629 5630 5631 5632 5632 5633 5633 5632 5632 5632 5631 5631 5630 5629 5628 5628 5628 5627 5626 5625 5624 5622 5622 5622 5622 5622 5621 5621 5621 5621 5620 5620 5620 5619 5617 5617 5616 5616 5616 5616 5615 5615 5614 5612 5611 5610 5609 5608 5606 5605 5603 5601 5600 5598 5598 5597 5596 5595 5593 5593 5591 5589 5588 5587 5587 5588 5589 5585 5581 5580 5579 5577 5574 5571 5571 5570 5567 5565 5563 5563 5562 5561 5560 5560
5619 5620 5621 5621 5622 5623 5623 5623 5623 5623 5622 5622 5621 5621 5619 5619 5619 5618 5618 5617 5616 5614 5613 5613 5613 5613 5613 5613 5612 5612 5612 5612 5611 5611 5610 5609 5608 5608 5608 5607 5606 5606 5605 5604 5603 5602 5600 5599 5598 5597 5595 5593 5592 5590 5589 5589 5588 5587 5585 5584 5583 5581 5580 5578 5577 5577 5578 5579 5577 5574 5571 5570 5568 5565 5562 5561 5561 5559 5557 5556 5555 5555 5554 5552 5551
5609 5610 5611 5613 5614 5614 5614 5613 5613 5613 5612 5612 5612 5611 5610 5610 5610 5609 5608 5607 5606 5605 5604 5604 5603 5603 5603 5603 5603 5603 5603 5603 5602 5602 5601 5600 5600 5599 5599 5598 5597 5596 5596 5594 5593 5592 5591 5589 5588 5587 5585 5584 5582 5582 5581 5580 5579 5578 5576 5574 5573 5572 5571 5569 5568 5568 5568 5568 5567 5566 5564 5562 5560 5557 5553 5551 5551 5552 5551 5549 5548 5546 5545 5544 5543
5599 5601 5602 5604 5605 5605 5605 5604 5603 5603 5602 5603 5602 5601 5601 5600 5600 5599 5598 5597 5596 5595 5595 5594 5594 5594 5593 5593 5593 5593 5593 5593 5593 5593 5592 5591 5591 5590 5589 5588 5587 5586 5586 5585 5583 5582 5581 5580 5579 5577 5576 5574 5573 5573 5572 5571 5569 5568 5566 5565 5564 5563 5562 5560 5559 5559 5558 5558 5558 5557 5556 5555 5553 5550 5546 5543 5542 5543 5543 5543 5542 5539 5537 5534 5533
5588 5590 5591 5593 5595 5595 5595 5593 5593 5593 5593 5593 5592 5591 5591 5590 5589 5589 5588 5587 5587 5586 5585 5584 5584 5583 5583 5583 5583 5583 5583 5584 5584 5583 5582 5581 5581 5580 5579 5578 5577 5576 5575 5574 5573 5572 5571 5570 5568 5567 5566 5565 5564 5563 5562 5561 5560 5559 5558 5557 5556 5554 5553 5552 5550 5549 5549 5549 5549 5548 5547 5546 5544 5542 5538 5534 5532 5532 5532 5532 5532 5531 5529 5527 5522
5578 5579 5580 5583 5585 5585 5584 5583 5583 5583 5583 5583 5582 5581 5581 5579 5579 5579 5579 5578 5577 5576 5576 5575 5574 5574 5573 5573 5573 5572 5573 5573 5573 5572 5571 5571 5570 5570 5570 5569 5567 5566 5565 5564 5563 5561 5560 5559 5558 5557 5556 5555 5554 5554 5553 5552 5551 5550 5549 5548 5547 5545 5544 5543 5542 5541 5540 5541 5540 5539 5539 5537 5535 5533 5531 5526 5523 5521 5521 5520 5521 5519 5518 5519 5515
5571 5570 5570 5572 5573 5573 5573 5573 5573 5573 5573 5573 5572 5571 5570 5569 5569 5569 5569 5569 5568 5567 5566 5566 5565 5565 5564 5563 5563 5563 5563 5563 5562 5561 5560 5560 5560 5559 5559 5558 5557 5556 5554 5553 5552 5551 5550 5549 5548 5547 5546 5545 5545 5544 5543 5543 5542 5541 5540 5539 5537 5536 5535 5534 5533 5532 5532 5532 5532 5530 5530 5528 5526 5524 5522 5518 5514 5511 5509 5507 5508 5507 5504 5506 5506
5562 5562 5562 5562 5560 5560 5560 5561 5562 5562 5563 5563 5562 5562 5561 5560 5560 5560 5560 5559 5558 5557 5557 5557 5556 5556 5554 5554 5553 5553 5553 5553 5552 5551 5550 5549 5549 5548 5548 5547 5546 5545 5544 5543 5542 5541 5539 5539 5538 5537 5536 5536 5535 5534 5534 5534 5533 5532 5530 5529 5528 5527 5526 5525 5524 5523 5523 5523 5522 5521 5520 5519 5517 5514 5511 5508 5505 5502 5498 5495 5493 5493 5491 5490 5491
5548 5550 5551 5550 5548 5547 5547 5548 5549 5550 5551 5551 5551 5550 5549 5549 5550 5550 5550 5549 5547 5547 5547 5547 5546 5545 5545 5544 5544 5543 5543 5543 5542 5541 5540 5540 5539 5538 5538 5537 5536 5535 5534 5533 5531 5530 5530 5529 5528 5527 5527 5526 5526 5525 5525 5524 5523 5522 5521 5520 5519 5518 5516 5515 5514 5514 5513 5513 5513 5511 5508 5507 5506 5504 5500 5497 5495 5493 5489 5485 5480 5479 5478 5475 5473
5533 5535 5536 5536 5535 5535 5534 5534 5536 5537 5537 5538 5538 5538 5537 5538 5539 5539 5538 5537 5536 5536 5537 5536 5536 5535 5535 5534 5534 5533 5533 5532 5532 5530 5530 5530 5530 5529 5528 5528 5527 5526 5524 5523 5522 5521 5520 5519 5518 5518 5517 5517 5517 5516 5515 5515 5514 5513 5512 5511 5510 5508 5506 5505 5504 5504 5504 5503 5502 5500 5497 5495 5495 5493 5489 5485 5483 5481 5479 5475 5469 5464 5463 5461 5457
5519 5520 5521 5522 5522 5521 5521 5522 5523 5524 5524 5524 5525 5525 5526 5526 5527 5526 5526 5525 5525 5526 5526 5525 5525 5525 5524 5524 5523 5522 5522 5522 5521 5520 5520 5520 5520 5519 5519 5518 5517 5516 5515 5513 5513 5512 5511 5510 5509 5508 5508 5508 5507 5506 5505 5505 5505 5504 5503 5502 5501 5499 5497 5495 5494 5494 5493 5492 5491 5489 5486 5483 5482 5480 5477 5472 5468 5466 5465 5463 5458 5451 5447 5446 5444
5506 5506 5507 5508 5509 5509 5509 5510 5511 5512 5512 5513 5513 5514 5514 5515 5515 5514 5514 5513 5514 5514 5514 5514 5514 5514 5513 5513 5512 5512 5513 5512 5511 5510 5511 5511 5510 5510 5509 5508 5507 5507 5506 5505 5504 5503 5502 5502 5501 5499 5498 5498 5497 5496 5496 5496 5495 5495 5494 5493 5492 5490 5487 5486 5484 5484 5482 5480 5479 5477 5474 5470 5468 5465 5463 5459 5453 5450 5449 5448 5444 5437 5432 5432 5430
5495 5495 5495 5495 5495 5496 5497 5498 5500 5501 5502 5503 5503 5503 5503 5503 5503 5503 5502 5503 5503 5503 5503 5503 5503 5503 5503 5503 5502 5502 5503 5502 5501 5501 5501 5502 5501 5501 5500 5500 5499 5497 5496 5496 5495 5494 5494 5493 5492 5490 5489 5488 5488 5487 5487 5487 5486 5486 5485 5483 5482 5480 5477 5475 5474 5473 5471 5469 5466 5464 5461 5457 5454 5451 5448 5445 5439 5434 5433 5433 5428 5421 5417 5416 5414
5483 5483 5483 5483 5483 5484 5485 5487 5488 5489 5491 5492 5492 5492 5492 5492 5493 5492 5493 5493 5493 5493 5493 5492 5492 5493 5493 5493 5493 5493 5493 5492 5491 5491 5492 5492 5493 5493 5492 5491 5489 5488 5487 5487 5486 5486 5485 5484 5482 5481 5480 5479 5478 5478 5478 5478 5477 5476 5475 5473 5471 5470 5467 5465 5464 5461 5458 5457 5454 5452 5449 5445 5441 5438 5434 5429 5424 5418 5416 5415 5412 5405 5401 5400 5397
5471 5471 5470 5470 5471 5471 5472 5474 5476 5478 5479 5480 5480 5480 5481 5481 5482 5482 5482 5483 5483 5482 5483 5482 5482 5483 5483 5483 5483 5483 5483 5482 5480 5481 5482 5483 5484 5484 5482 5480 5479 5479 5478 5477 5477 5476 5475 5474 5473 5472 5471 5470 5469 5469 5468 5469 5468 5466 5464 5463 5461 5459 5456 5454 5453 5450 5446 5444 5442 5439 5436 5432 5428 5425 5421 5416 5410 5404 5400 5398 5395 5390 5386 5384 5380
5459 5459 5459 5460 5460 5460 5461 5462 5464 5465 5467 5468 5468 5469 5470 5469 5470 5470 5470 5471 5471 5471 5472 5472 5472 5473 5473 5473 5472 5472 5473 5472 5470 5472 5473 5473 5475 5474 5472 5471 5470 5470 5469 5468 5468 5467 5466 5465 5464 5463 5462 5460 5459 5459 5458 5458 5458 5456 5454 5452 5450 5447 5445 5443 5441 5438 5434 5432 5429 5426 5423 5420 5417 5413 5408 5404 5398 5392 5388 5383 5380 5376 5372 5370 5366
5449 5449 5449 5450 5449 5449 5449 5450 5451 5453 5455 5456 5457 5457 5458 5457 5458 5458 5458 5459 5460 5461 5461 5461 5462 5462 5462 5462 5462 5462 5463 5461 5460 5462 5463 5463 5464 5464 5462 5461 5461 5461 5460 5459 5458 5457 5456 5456 5455 5454 5452 5451 5450 5449 5448 5447 5447 5445 5443 5441 5439 5436 5434 5432 5429 5426 5424 5421 5418 5416 5412 5409 5406 5403 5398 5393 5388 5382 5377 5372 5367 5364 5358 5356 5354
5437 5437 5438 5438 5437 5437 5437 5438 5439 5441 5442 5444 5445 5445 5446 5446 5446 5447 5447 5448 5449 5450 5451 5451 5451 5451 5451 5452 5452 5452 5453 5451 5450 5453 5453 5453 5454 5454 5453 5452 5452 5451 5449 5449 5449 5448 5447 5446 5445 5444 5443 5441 5440 5439 5438 5437 5436 5435 5433 5430 5428 5426 5424 5421 5418 5415 5413 5411 5408 5405 5401 5398 5396 5392 5387 5383 5378 5371 5366 5361 5356 5352 5347 5342 5340
5423 5424 5425 5425 5425 5425 5425 5426 5428 5429 5431 5432 5433 5434 5435 5435 5436 5436 5437 5438 5439 5440 5441 5441 5441 5441 5441 5442 5442 5443 5443 5441 5440 5442 5443 5442 5443 5446 5444 5442 5441 5441 5440 5440 5439 5438 5437 5437 5435 5434 5433 5432 5430 5429 5427 5426 5425 5423 5422 5419 5417 5416 5413 5411 5408 5405 5402 5400 5397 5394 5390 5387 5385 5381 5376 5372 5367 5360 5355 5350 5345 5341 5336 5331 5326
5409 5411 5412 5412 5413 5413 5414 5415 5417 5418 5419 5420 5421 5423 5423 5424 5425 5426 5426 5426 5427 5428 5429 5430 5430 5431 5431 5432 5433 5433 5432 5431 5430 5431 5432 5432 5433 5436 5435 5432 5431 5431 5431 5430 5430 5428 5428 5427 5425 5423 5423 5422 5421 5419 5417 5416 5414 5412 5410 5409 5407 5405 5402 5400 5397 5395 5392 5389 5386 5384 5380 5376 5373 5370 5366 5362 5356 5350 5344 5339 5335 5330 5325 5322 5317
5396 5398 5399 5400 5401 5402 5402 5404 5405 5407 5408 5408 5410 5411 5412 5412 5414 5415 5416 5416 5416 5416 5417 5418 5418 5420 5421 5422 5423 5423 5423 5422 5420 5420 5421 5421 5422 5425 5426 5423 5422 5422 5421 5421 5420 5418 5417 5416 5413 5413 5413 5412 5411 5409 5407 5406 5404 5401 5399 5398 5395 5393 5391 5388 5386 5383 5381 5378 5375 5372 5369 5364 5362 5358 5355 5351 5346 5339 5333 5328 5324 5320 5314 5311 5309
5383 5385 5386 5387 5388 5389 5390 5392 5393 5395 5396 5397 5398 5400 5401 5401 5403 5405 5406 5407 5407 5407 5407 5407 5407 5408 5409 5410 5411 5412 5412 5411 5410 5410 5411 5411 5411 5414 5416 5414 5412 5412 5412 5411 5410 5408 5406 5405 5403 5403 5403 5402 5400 5398 5397 5395 5393 5390 5388 5386 5384 5381 5379 5377 5374 5372 5370 5367 5364 5361 5357 5353 5350 5346 5343 5340 5335 5329 5323 5319 5315 5309 5303 5300 5300
5370 5373 5374 5375 5376 5377 5378 5380 5382 5382 5384 5385 5386 5388 5389 5390 5392 5393 5394 5396 5397 5398 5398 5398 5398 5399 5400 5400 5400 5401 5400 5400 5399 5400 5402 5402 5402 5404 5406 5405 5402 5401 5401 5401 5400 5399 5396 5395 5395 5394 5393 5391 5389 5387 5386 5384 5382 5380 5377 5375 5372 5370 5368 5366 5364 5361 5359 5356 5354 5351 5347 5343 5339 5335 5331 5329 5325 5318 5312 5309 5306 5301 5293 5289 5289
5355 5359 5362 5363 5364 5365 5366 5368 5369 5370 5371 5373 5374 5376 5378 5379 5380 5382 5384 5384 5385 5386 5387 5388 5389 5390 5391 5390 5390 5390 5390 5390 5390 5391 5393 5394 5393 5394 5395 5393 5392 5392 5392 5391 5390 5389 5387 5386 5385 5384 5382 5381 5379 5377 5375 5374 5371 5369 5367 5365 5362 5360 5358 5356 5354 5351 5349 5346 5343 5340 5337 5333 5329 5325 5322 5319 5315 5308 5301 5297 5295 5292 5285 5279 5277
5340 5344 5349 5351 5351 5353 5354 5354 5356 5357 5359 5361 5362 5364 5366 5367 5369 5371 5373 5373 5374 5374 5375 5377 5378 5379 5380 5380 5381 5382 5382 5383 5383 5383 5383 5383 5382 5382 5383 5383 5383 5383 5383 5381 5380 5380 5379 5377 5376 5375 5373 5371 5369 5367 5365 5363 5361 5359 5357 5355 5352 5350 5348 5346 5344 5341 5339 5337 5334 5331 5327 5323 5320 5316 5312 5310 5305 5298 5292 5287 5283 5280 5276 5270 5266
5324 5329 5335 5338 5338 5340 5340 5341 5343 5344 5346 5348 5350 5352 5354 5356 5358 5360 5362 5362 5363 5363 5364 5365 5366 5367 5369 5370 5371 5372 5373 5374 5373 5372 5371 5371 5370 5371 5374 5374 5374 5374 5373 5371 5370 5370 5370 5370 5368 5366 5364 5362 5360 5358 5356 5353 5351 5349 5347 5345 5342 5341 5339 5337 5334 5331 5329 5326 5324 5321 5317 5314 5310 5306 5303 5300 5296 5289 5282 5277 5273 5269 5265 5260 5257
5310 5315 5320 5323 5325 5326 5326 5328 5330 5331 5333 5336 5337 5339 5342 5344 5346 5349 5350 5351 5351 5352 5353 5354 5355 5356 5358 5359 5360 5361 5361 5362 5362 5360 5360 5360 5359 5360 5363 5364 5364 5364 5363 5362 5360 5360 5361 5361 5358 5356 5354 5352 5350 5348 5346 5343 5341 5339 5337 5335 5333 5331 5329 5327 5324 5322 5319 5316 5313 5310 5307 5304 5300 5297 5293 5291 5288 5282 5275 5268 5263 5258 5255 5250 5247
5296 5301 5306 5307 5309 5311 5312 5314 5317 5318 5320 5323 5324 5326 5329 5331 5334 5336 5338 5339 5340 5341 5342 5343 5344 5346 5347 5349 5349 5350 5351 5351 5351 5351 5350 5349 5348 5349 5351 5353 5354 5354 5353 5352 5351 5351 5351 5349 5346 5345 5343 5341 5340 5338 5336 5334 5331 5329 5327 5325 5324 5322 5320 5317 5315 5313 5310 5307 5304 5300 5297 5294 5291 5288 5284 5280 5278 5274 5268 5261 5255 5249 5245 5240 5235
5279 5285 5290 5291 5293 5295 5297 5300 5303 5305 5307 5310 5312 5313 5316 5318 5321 5323 5325 5326 5329 5330 5331 5333 5334 5335 5336 5337 5338 5340 5341 5340 5340 5340 5339 5338 5339 5340 5341 5343 5343 5343 5344 5344 5342 5341 5340 5337 5335 5334 5333 5331 5330 5328 5326 5324 5322 5319 5317 5315 5314 5313 5311 5308 5306 5304 5301 5298 5295 5291 5288 5285 5281 5279 5275 5270 5267 5264 5260 5253 5247 5241 5236 5231 5225
5261 5267 5273 5276 5277 5279 5282 5285 5288 5291 5293 5296 5298 5300 5302 5305 5307 5310 5311 5313 5316 5318 5320 5322 5323 5324 5325 5326 5326 5328 5329 5329 5329 5328 5328 5329 5330 5330 5331 5331 5331 5331 5334 5334 5331 5329 5329 5327 5325 5324 5322 5320 5319 5318 5316 5314 5312 5310 5308 5306 5304 5303 5302 5299 5297 5295 5291 5289 5286 5282 5279 5276 5273 5270 5267 5262 5257 5253 5249 5244 5238 5232 5226 5221 5217
5244 5249 5255 5259 5261 5264 5267 5270 5273 5275 5278 5280 5283 5286 5288 5290 5292 5294 5296 5299 5303 5306 5308 5309 5310 5312 5314 5315 5316 5317 5318 5317 5317 5316 5317 5318 5319 5319 5319 5319 5318 5321 5324 5322 5319 5318 5317 5315 5314 5312 5311 5309 5308 5307 5305 5304 5303 5300 5299 5297 5294 5293 5291 5290 5288 5285 5282 5279 5276 5274 5271 5268 5264 5261 5258 5254 5249 5244 5239 5234 5228 5222 5216 5210 5206
5227 5231 5237 5241 5244 5247 5251 5255 5257 5260 5263 5265 5267 5270 5273 5275 5277 5279 5282 5286 5288 5292 5295 5297 5298 5299 5301 5302 5305 5306 5305 5304 5303 5303 5304 5305 5306 5307 5307 5307 5309 5311 5311 5309 5306 5306 5305 5303 5301 5301 5300 5298 5297 5296 5295 5294 5292 5291 5289 5287 5286 5284 5283 5281 5279 5276 5274 5270 5268 5265 5263 5259 5255 5252 5248 5245 5240 5235 5230 5225 5218 5212 5205 5199 5194
5209 5214 5219 5223 5226 5229 5234 5237 5240 5244 5247 5249 5251 5254 5257 5259 5262 5265 5269 5272 5275 5278 5281 5283 5285 5286 5288 5290 5293 5292 5290 5289 5289 5289 5290 5292 5293 5293 5295 5296 5297 5297 5295 5293 5293 5293 5292 5291 5290 5289 5289 5288 5287 5286 5285 5284 5282 5281 5280 5278 5277 5276 5274 5273 5271 5268 5265 5262 5259 5257 5255 5251 5247 5243 5239 5236 5230 5225 5220 5214 5208 5202 5195 5187 5182
5192 5196 5201 5206 5208 5211 5215 5220 5223 5226 5229 5232 5236 5239 5242 5245 5247 5250 5253 5257 5261 5264 5266 5269 5271 5273 5276 5279 5280 5278 5276 5275 5274 5275 5277 5279 5280 5283 5285 5285 5283 5281 5281 5281 5282 5281 5280 5280 5279 5278 5278 5278 5277 5276 5275 5274 5273 5272 5271 5270 5269 5268 5266 5264 5262 5260 5257 5255 5252 5250 5247 5243 5239 5235 5231 5227 5222 5216 5211 5204 5198 5193 5187 5178 5170
5176 5180 5184 5188 5190 5193 5198 5202 5205 5208 5211 5216 5220 5224 5227 5230 5232 5235 5239 5242 5245 5248 5252 5255 5257 5258 5261 5265 5266 5264 5263 5262 5262 5264 5265 5267 5269 5272 5273 5271 5269 5268 5269 5270 5270 5269 5269 5268 5268 5268 5268 5268 5268 5267 5266 5265 5264 5264 5263 5262 5261 5260 5258 5256 5254 5252 5250 5247 5245 5242 5240 5236 5232 5227 5222 5217 5213 5208 5202 5196 5188 5182 5177 5171 5163
5162 5165 5169 5172 5174 5178 5182 5185 5188 5191 5194 5199 5204 5208 5211 5215 5218 5221 5225 5229 5231 5234 5237 5240 5243 5244 5246 5248 5249 5250 5250 5250 5251 5253 5254 5255 5258 5259 5257 5256 5256 5257 5257 5257 5257 5257 5258 5258 5258 5259 5259 5259 5259 5258 5258 5257 5256 5256 5256 5254 5253 5252 5250 5249 5247 5244 5242 5240 5238 5235 5232 5228 5224 5219 5214 5209 5204 5199 5193 5188 5180 5172 5166 5161 5155
5150 5153 5156 5159 5161 5164 5168 5171 5174 5177 5180 5185 5189 5192 5196 5200 5204 5207 5211 5215 5218 5220 5222 5226 5229 5231 5232 5233 5235 5236 5237 5237 5239 5241 5242 5243 5245 5244 5243 5243 5244 5245 5245 5245 5246 5247 5248 5249 5250 5250 5250 5251 5251 5250 5250 5249 5249 5248 5248 5246 5245 5244 5242 5241 5239 5237 5235 5233 5230 5227 5224 5220 5216 5212 5206 5201 5196 5190 5184 5178 5172 5165 5158 5151 5145
5140 5143 5146 5149 5151 5154 5156 5159 5163 5166 5169 5172 5176 5179 5183 5187 5190 5194 5197 5201 5204 5207 5209 5212 5215 5217 5219 5221 5221 5222 5223 5224 5226 5229 5231 5231 5231 5231 5231 5233 5234 5234 5234 5236 5236 5238 5239 5240 5241 5242 5242 5242 5243 5242 5242 5242 5242 5241 5240 5239 5237 5236 5234 5233 5231 5230 5228 5226 5223 5220 5217 5213 5208 5204 5199 5193 5188 5182 5176 5169 5163 5157 5150 5144 5137
5132 5135 5139 5141 5142 5145 5148 5151 5154 5156 5158 5161 5165 5168 5171 5175 5178 5181 5185 5188 5191 5193 5196 5198 5202 5204 5206 5207 5208 5210 5212 5213 5215 5217 5218 5218 5219 5220 5221 5223 5224 5225 5226 5227 5228 5229 5230 5231 5232 5233 5234 5234 5235 5236 5236 5236 5235 5233 5232 5231 5230 5228 5227 5225 5224 5222 5221 5219 5216 5212 5209 5205 5200 5195 5191 5185 5180 5175 5168 5162 5156 5149 5143 5137 5131
5126 5129 5132 5134 5136 5139 5141 5144 5147 5149 5151 5154 5156 5159 5162 5165 5168 5171 5174 5177 5180 5182 5184 5187 5190 5191 5192 5195 5198 5201 5202 5203 5204 5206 5207 5208 5209 5210 5212 5213 5215 5216 5218 5219 5220 5221 5222 5223 5224 5225 5226 5227 5229 5229 5229 5229 5228 5226 5225 5224 5222 5221 5220 5218 5217 5215 5214 5211 5208 5205 5201 5197 5193 5188 5183 5177 5172 5167 5161 5155 5149 5143 5137 5131 5125
5122 5125 5127 5130 5132 5134 5137 5139 5141 5143 5146 5148 5150 5153 5156 5159 5161 5164 5167 5169 5172 5174 5176 5178 5180 5181 5183 5187 5190 5191 5192 5194 5196 5198 5199 5199 5201 5202 5204 5206 5207 5209 5210 5211 5212 5214 5214 5215 5216 5218 5219 5221 5222 5222 5222 5222 5221 5220 5218 5217 5216 5215 5213 5212 5210 5208 5206 5204 5201 5198 5194 5190 5185 5181 5176 5170 5165 5160 5155 5148 5142 5137 5131 5124 5119
5118 5121 5124 5126 5129 5131 5133 5135 5137 5139 5142 5144 5146 5149 5151 5154 5156 5159 5161 5163 5166 5168 5169 5171 5172 5174 5178 5180 5181 5183 5185 5188 5190 5191 5192 5192 5193 5195 5197 5199 5201 5202 5203 5205 5206 5207 5207 5208 5209 5211 5213 5214 5215 5216 5215 5215 5214 5213 5212 5211 5209 5208 5207 5205 5203 5201 5199 5196 5194 5190 5187 5183 5178 5173 5169 5164 5158 5152 5147 5141 5135 5129 5123 5118 5113
5114 5117 5119 5122 5125 5127 5130 5132 5134 5136 5138 5140 5143 5145 5147 5150 5152 5154 5156 5158 5160 5162 5163 5165 5167 5170 5173 5174 5175 5178 5180 5182 5183 5184 5185 5186 5187 5189 5191 5193 5195 5196 5198 5199 5200 5201 5201 5202 5204 5205 5207 5208 5209 5209 5209 5209 5208 5207 5206 5205 5203 5202 5200 5198 5196 5194 5191 5188 5186 5183 5179 5176 5171 5166 5161 5156 5151 5145 5139 5134 5128 5122 5117 5112 5107
5110 5113 5116 5118 5121 5123 5126 5128 5130 5133 5135 5137 5139 5141 5143 5145 5148 5150 5151 5153 5155 5157 5159 5162 5164 5166 5168 5169 5171 5173 5175 5176 5177 5178 5179 5180 5182 5184 5186 5188 5189 5191 5192 5193 5194 5195 5196 5197 5199 5200 5201 5202 5202 5203 5202 5202 5202 5201 5200 5198 5197 5195 5193 5191 5189 5186 5183 5180 5177 5174 5171 5167 5163 5158 5153 5148 5143 5138 5132 5127 5122 5117 5111 5106 5101
5108 5110 5113 5116 5118 5120 5123 5125 5127 5129 5131 5133 5135 5137 5139 5141 5143 5145 5147 5148 5151 5153 5156 5158 5160 5162 5163 5165 5166 5168 5169 5171 5172 5173 5174 5176 5178 5180 5181 5183 5184 5185 5187 5188 5189 5190 5191 5193 5194 5195 5196 5196 5196 5196 5196 5196 5195 5194 5193 5192 5190 5188 5186 5184 5181 5178 5176 5173 5169 5166 5162 5159 5154 5150 5145 5140 5135 5130 5124 5119 5115 5111 5106 5101 5096
5105 5108 5111 5113 5116 5118 5120 5122 5124 5126 5128 5129 5131 5133 5135 5137 5139 5141 5143 5144 5147 5149 5151 5153 5155 5157 5158 5160 5161 5163 5165 5166 5168 5169 5170 5172 5174 5175 5176 5178 5179 5180 5182 5183 5184 5186 5187 5188 5189 5190 5190 5190 5191 5190 5190 5190 5189 5188 5186 5185 5183 5181 5179 5176 5174 5171 5168 5165 5161 5157 5154 5150 5146 5141 5136 5132 5127 5122 5117 5112 5108 5105 5100 5096 5091
5104 5106 5109 5111 5113 5115 5117 5119 5121 5122 5124 5125 5127 5129 5131 5133 5134 5136 5138 5141 5143 5144 5146 5148 5149 5151 5153 5155 5157 5159 5160 5162 5163 5164 5166 5167 5169 5170 5172 5173 5174 5176 5178 5179 5181 5182 5183 5184 5184 5185 5185 5185 5185 5185 5184 5183 5183 5181 5180 5178 5176 5174 5171 5169 5166 5163 5159 5156 5153 5149 5145 5141 5137 5132 5128 5123 5119 5114 5110 5105 5102 5098 5094 5090 5086
5103 5105 5107 5109 5111 5113 5114 5116 5117 5119 5121 5122 5124 5126 5127 5129 5131 5133 5135 5136 5138 5139 5141 5142 5144 5146 5149 5150 5152 5154 5155 5157 5158 5159 5161 5163 5164 5166 5167 5169 5171 5173 5174 5176 5177 5178 5178 5179 5180 5180 5180 5180 5179 5179 5178 5177 5176 5174 5173 5171 5168 5166 5164 5161 5158 5155 5151 5148 5144 5141 5137 5133 5129 5124 5119 5115 5110 5106 5102 5098 5095 5092 5088 5084 5080